[[{"header":{"parameterUnit":"m.s-1","parameterCategory":1,"la1":30.2991,"la2":30.254,"lo1":-89.0895,"lo2":-89.0444,"dy":0.0017,"dx":0.0017,"nx":28,"ny":28,"refTime":"2024-09-30T21:00:00:Z","depth":0,"parameterNumber":2,"parameterNumberName":"U-component_of_WINDS"},"data":[0,0,0,0,0,0,0,0,0,0,0,0,0,0,0,0,0,0,0,0,0,0,0,0,0,0,0,0,0,0,0,0,0,0,0,0,0,0,0,0,0,0,0,0,0,0,0,0,0,0,0,0,0,0,0,0,0,0,0.5838,0.5839,0,0.5947,0.5948,0.5949,0.5966,0.5965,0.5964,0.5963,0.608,0.6083,0.6087,0,0,0,0,0,0,0,0,0,0,0,0,0,0.5648,0.5652,0.5838,0.5839,0.5841,0.5947,0.5948,0.595,0.5966,0.5965,0.5964,0.5963,0.6078,0.6083,0.6088,0,0,0,0,0,0,0,0,0,0,0,0,0,0.5741,0.5653,0.5838,0.5861,0.5865,0.5946,0.5948,0.595,0.5966,0.5965,0.5963,0.5962,0.6077,0.6082,0.6088,0.6155,0,0,0.6107,0.6109,0,0,0,0,0,0,0,0,0.5736,0.5748,0.5857,0.586,0.5864,0.5941,0.5924,0.6019,0.5967,0.5928,0.5963,0.5961,0.6035,0.6044,0.6068,0.6161,0.6166,0.6107,0.6111,0.6114,0.6115,0,0,0,0,0,0,0,0.573,0.5744,0.5881,0.5858,0.5863,0.5868,0.588,0.5942,0.5989,0.5931,0.5933,0.5945,0.6037,0.6062,0.6071,0.6168,0.6107,0.6113,0.6116,0.6119,0.632,0.6321,0,0,0,0,0,0,0.5718,0.5738,0.5878,0.5884,0.5795,0.5873,0.5886,0.5918,0.5988,0.5997,0.5946,0.5945,0.6053,0.6064,0.6075,0.6157,0.6114,0.6119,0.6123,0.6318,0.632,0.6322,0,0,0,0,0,0,0.5714,0.573,0.5873,0.5812,0.583,0.5877,0.5914,0.5921,0.5946,0.5999,0.6008,0.5964,0.6052,0.6067,0.6135,0.6162,0.6122,0.6127,0.6316,0.6319,0.6321,0.6323,0,0,0,0,0,0,0.5708,0.5729,0.5754,0.5812,0.5833,0.593,0.5915,0.5924,0.5956,0.5956,0.6018,0.6027,0.6052,0.6126,0.6141,0.6169,0.6132,0.6314,0.6317,0.632,0.632,0.6325,0.6329,0,0,0,0,0,0.5702,0.5751,0.5755,0.5772,0.5865,0.5931,0.5944,0.597,0.5958,0.5984,0.6018,0.6025,0.6156,0.6132,0.615,0.618,0.6312,0.6316,0.632,0.6318,0.6324,0.6329,0,0,0,0,0,0,0.5697,0.5759,0.5764,0.5834,0.5877,0.5934,0.5968,0.5976,0.6024,0.6022,0.6055,0.6069,0.6135,0.6165,0.6137,0.6248,0.6233,0.6241,0.6226,0.6232,0.6236,0.6228,0.6137,0,0,0,0,0,0.5704,0.575,0.5803,0.586,0.5881,0.592,0.595,0.5967,0.6013,0.6032,0.6071,0.6117,0.6169,0.6202,0.6253,0.6325,0.6338,0.6354,0.6359,0.6362,0.6368,0.6407,0.6415,0.6335,0.6335,0.6335,0,0,0.5719,0.5759,0.5787,0.5859,0.5895,0.5943,0.5936,0.5988,0.6024,0.6041,0.6106,0.6136,0.619,0.626,0.6293,0.6287,0.6393,0.6367,0.6369,0.6373,0.6412,0.642,0.6426,0.6337,0.6337,0.6336,0,0,0.5771,0.5805,0.5856,0.5891,0.5943,0.5969,0.5981,0.6037,0.6057,0.6123,0.6136,0.6181,0.6269,0.6307,0.6337,0.6402,0.641,0.6418,0.644,0.6478,0.6484,0.649,0.6513,0.652,0.6424,0.6424,0.6424,0,0.5783,0.5855,0.5881,0.5932,0.5964,0.5979,0.603,0.6064,0.6131,0.6153,0.6145,0.6255,0.6293,0.6371,0.6386,0.6411,0.6426,0.6411,0.6481,0.6487,0.6493,0.6515,0.6523,0.6424,0.6424,0.6424,0.6424,0,0.5868,0.5918,0.5952,0.6014,0.605,0.6102,0.6136,0.6169,0.6183,0.621,0.6277,0.6322,0.6381,0.6401,0.6416,0.6482,0.6476,0.6474,0.646,0.6501,0.6522,0.653,0.6425,0.6425,0.6425,0.6425,0,0,0.592,0.5995,0.6007,0.6035,0.6094,0.6134,0.6186,0.6242,0.627,0.6316,0.636,0.6434,0.6432,0.6467,0.6486,0.6519,0.6567,0.6513,0.6515,0.6521,0.6642,0.6642,0.6651,0.6572,0.6574,0.6575,0.6637,0,0.5978,0.6069,0.6094,0.6172,0.6218,0.6232,0.6278,0.6319,0.6346,0.639,0.642,0.6471,0.6466,0.6486,0.652,0.6554,0.6591,0.655,0.6615,0.6617,0.66,0.6662,0.6663,0.6719,0.6645,0.6647,0.6648,0,0.6059,0.6104,0.6186,0.6237,0.6258,0.6298,0.6351,0.6393,0.644,0.6457,0.6495,0.6511,0.6566,0.6549,0.6626,0.6597,0.6625,0.6645,0.6648,0.6655,0.6634,0.667,0.6738,0.6745,0.6661,0.666,0.6659,0,0.6087,0.6169,0.6228,0.6252,0.6314,0.6342,0.6369,0.6415,0.6447,0.6494,0.6515,0.6569,0.6598,0.6639,0.6669,0.6654,0.6743,0.6729,0.6759,0.6759,0.6778,0.6776,0.685,0.6797,0.6796,0.6796,0.6796,0,0.615,0.6199,0.6242,0.6278,0.6334,0.6362,0.6417,0.6445,0.6486,0.6529,0.6545,0.6585,0.6622,0.6668,0.6691,0.6751,0.6765,0.678,0.6786,0.6778,0.6776,0.6797,0.6794,0.6798,0.6798,0.6798,0.6797,0,0.6191,0.6222,0.6287,0.634,0.6354,0.6393,0.6439,0.6476,0.6502,0.6556,0.657,0.6613,0.6667,0.67,0.677,0.6786,0.6851,0.6856,0.6834,0.6837,0.6865,0.6862,0.6955,0.6968,0.6906,0.6907,0.6907,0,0.6228,0.6266,0.6323,0.6352,0.6379,0.6426,0.6458,0.6487,0.652,0.6576,0.6606,0.666,0.6706,0.6791,0.6829,0.6882,0.6888,0.6917,0.6896,0.6887,0.6888,0.6884,0.6888,0.692,0.6921,0.6921,0.6921,0,0.6291,0.6304,0.6349,0.6399,0.6436,0.6477,0.6519,0.6542,0.6578,0.6614,0.6669,0.6704,0.6773,0.6827,0.6883,0.6913,0.6923,0.6927,0.6937,0.693,0.6915,0.6923,0.6843,0.6925,0.6925,0.6924,0.6924,0.6924,0.6331,0.6365,0.641,0.6459,0.6493,0.653,0.6567,0.6597,0.6642,0.67,0.6715,0.6772,0.6818,0.6894,0.6925,0.697,0.6966,0.6981,0.6984,0.6987,0.6987,0.6908,0.6981,0.6981,0.6981,0.6981,0.6981,0,0.6394,0.6423,0.6468,0.6524,0.6563,0.6567,0.6613,0.6646,0.6695,0.6736,0.678,0.6842,0.6894,0.6936,0.699,0.7018,0.7024,0.7031,0.7029,0.7036,0.6988,0.6974,0.7025,0.7025,0.7025,0.7025,0.7025,0.7025,0.6431,0.6488,0.6507,0.6581,0.661,0.6664,0.669,0.6725,0.6758,0.6826,0.6869,0.6895,0.6937,0.6994,0.7042,0.7053,0.7072,0.7078,0.709,0.7044,0.7039,0.7035,0.7021,0.7082,0.7082,0.7133,0.7134,0.7134]},{"header":{"parameterUnit":"m.s-1","parameterCategory":1,"la1":30.2991,"la2":30.254,"lo1":-89.0895,"lo2":-89.0444,"dy":0.0017,"dx":0.0017,"nx":28,"ny":28,"refTime":"2024-09-30T21:00:00:Z","depth":0,"parameterNumber":3,"parameterNumberName":"V-component_of_WINDS"},"data":[0,0,0,0,0,0,0,0,0,0,0,0,0,0,0,0,0,0,0,0,0,0,0,0,0,0,0,0,0,0,0,0,0,0,0,0,0,0,0,0,0,0,0,0,0,0,0,0,0,0,0,0,0,0,0,0,0,0,2.2223,2.2222,0,2.2214,2.2213,2.2213,2.2103,2.21,2.2097,2.2095,2.2087,2.2089,2.2091,0,0,0,0,0,0,0,0,0,0,0,0,0,2.2144,2.2146,2.2223,2.2222,2.2222,2.2214,2.2213,2.2213,2.2103,2.21,2.2097,2.2093,2.2086,2.2089,2.2092,0,0,0,0,0,0,0,0,0,0,0,0,0,2.2161,2.2146,2.2223,2.2166,2.2161,2.2214,2.2213,2.2213,2.2104,2.21,2.2096,2.2092,2.2085,2.2089,2.2092,2.2198,0,0,2.2103,2.2105,0,0,0,0,0,0,0,0,2.216,2.2164,2.2175,2.217,2.2165,2.2155,2.2183,2.2208,2.2105,2.2126,2.2095,2.209,2.2113,2.2114,2.2122,2.2198,2.2197,2.2103,2.2106,2.2107,2.2108,0,0,0,0,0,0,0,2.2159,2.2164,2.2219,2.2175,2.2169,2.2141,2.2139,2.2187,2.2143,2.2124,2.2116,2.2116,2.2109,2.2118,2.2121,2.2197,2.2103,2.2106,2.2109,2.211,2.2354,2.2358,0,0,0,0,0,0,2.2166,2.2163,2.2219,2.2219,2.2152,2.2146,2.2144,2.2162,2.2142,2.2135,2.212,2.2111,2.2114,2.2116,2.212,2.2238,2.2107,2.211,2.2112,2.235,2.2355,2.236,0,0,0,0,0,0,2.2164,2.2172,2.222,2.2189,2.2193,2.2152,2.2174,2.2164,2.2173,2.2139,2.2131,2.2137,2.2111,2.2115,2.2178,2.2236,2.2112,2.2115,2.2345,2.2352,2.2358,2.2478,0,0,0,0,0,0,2.2162,2.2172,2.2212,2.2191,2.2195,2.2279,2.2178,2.2167,2.2179,2.2168,2.2153,2.2146,2.2108,2.2173,2.2182,2.2239,2.2118,2.2339,2.2348,2.2355,2.2468,2.2488,2.2504,0,0,0,0,0,2.216,2.2248,2.2215,2.2222,2.2244,2.2282,2.2285,2.2238,2.2185,2.2224,2.2202,2.2147,2.223,2.2181,2.2189,2.2248,2.2335,2.2345,2.2355,2.246,2.2484,2.2504,0,0,0,0,0,0,2.2278,2.2244,2.2207,2.229,2.229,2.2264,2.2312,2.2266,2.2281,2.2269,2.2212,2.2209,2.228,2.2271,2.2218,2.2347,2.2273,2.2285,2.235,2.2372,2.239,2.2388,2.2121,0,0,0,0,0,2.2314,2.2348,2.2316,2.2393,2.2394,2.2354,2.2368,2.2332,2.233,2.2329,2.2312,2.2312,2.2336,2.2355,2.2376,2.2468,2.2461,2.2513,2.2531,2.2545,2.2555,2.2598,2.2619,2.2392,2.2392,2.2392,0,0,2.2388,2.2373,2.2399,2.2416,2.2411,2.2446,2.2354,2.2396,2.2421,2.2336,2.2392,2.238,2.2376,2.2452,2.2485,2.2447,2.2617,2.2558,2.257,2.2571,2.261,2.2632,2.2651,2.2399,2.2397,2.2396,0,0,2.254,2.2534,2.2594,2.2591,2.2585,2.2557,2.2571,2.2552,2.2539,2.2596,2.2531,2.2561,2.2607,2.2605,2.261,2.2759,2.2707,2.2768,2.2859,2.2902,2.292,2.2935,2.2984,2.3002,2.2778,2.2779,2.2779,0,2.2632,2.2682,2.2632,2.2676,2.2684,2.2608,2.2667,2.2667,2.2669,2.2676,2.2634,2.2687,2.2679,2.2751,2.2787,2.2796,2.2808,2.2767,2.2921,2.2936,2.295,2.2995,2.3014,2.2786,2.2785,2.2784,2.2784,0,2.2794,2.2829,2.2879,2.288,2.2894,2.2947,2.2903,2.2923,2.2887,2.2863,2.2919,2.2907,2.2923,2.2939,2.2904,2.3006,2.2981,2.2932,2.2854,2.2979,2.3021,2.3038,2.2796,2.2793,2.2791,2.2789,0,0,2.3018,2.2989,2.3008,2.3005,2.2992,2.3018,2.3066,2.308,2.3097,2.3102,2.3138,2.3178,2.313,2.3136,2.3101,2.3139,2.3251,2.3083,2.3082,2.3111,2.3357,2.3391,2.3412,2.3219,2.3222,2.3225,2.3355,0,2.316,2.3239,2.3194,2.3279,2.3308,2.3236,2.3277,2.3273,2.3252,2.3274,2.3252,2.3279,2.3217,2.3219,2.3254,2.323,2.3299,2.3221,2.3249,2.3251,2.3248,2.3435,2.3472,2.3596,2.3372,2.3375,2.3377,0,2.3336,2.3344,2.3431,2.3408,2.3419,2.3457,2.3464,2.3487,2.3481,2.3462,2.3468,2.3423,2.3466,2.3394,2.3452,2.3399,2.3409,2.3399,2.3403,2.34,2.3318,2.3432,2.3635,2.3652,2.3403,2.3401,2.3399,0,2.3484,2.3518,2.3573,2.3574,2.355,2.3578,2.3569,2.3558,2.3568,2.3576,2.3581,2.3595,2.3601,2.3612,2.357,2.3522,2.3632,2.3557,2.3616,2.3617,2.3639,2.3637,2.3841,2.3654,2.3653,2.3653,2.3653,0,2.3644,2.3699,2.3638,2.3672,2.3731,2.3679,2.3738,2.3722,2.3713,2.3741,2.3682,2.3709,2.3655,2.3677,2.3646,2.3696,2.3701,2.3685,2.3675,2.3688,2.3689,2.369,2.3678,2.3658,2.3657,2.3656,2.3655,0,2.3818,2.3781,2.3835,2.3807,2.3801,2.3845,2.3821,2.385,2.3825,2.3861,2.3867,2.3828,2.385,2.3811,2.383,2.3808,2.3877,2.3856,2.3878,2.387,2.3929,2.3922,2.4137,2.416,2.3963,2.3965,2.3966,0,2.3921,2.396,2.3936,2.395,2.3944,2.3968,2.3977,2.3928,2.394,2.3933,2.3963,2.398,2.3991,2.403,2.4003,2.4016,2.3992,2.4066,2.3994,2.4003,2.3987,2.3983,2.3985,2.408,2.4082,2.4084,2.4086,0,2.4104,2.4083,2.4098,2.4106,2.4118,2.4123,2.4123,2.4138,2.4086,2.4102,2.4123,2.4132,2.4149,2.4166,2.4172,2.4162,2.4115,2.411,2.4123,2.4134,2.4143,2.4134,2.3913,2.4104,2.4102,2.4101,2.41,2.4099,2.4242,2.4272,2.4258,2.4276,2.4271,2.4272,2.4296,2.4273,2.429,2.4299,2.427,2.4297,2.4287,2.4289,2.4285,2.4305,2.4272,2.4293,2.4297,2.4302,2.4309,2.4144,2.4307,2.4306,2.4306,2.4305,2.4305,0,2.4418,2.4405,2.4423,2.4423,2.4437,2.4391,2.4388,2.4402,2.4426,2.4421,2.4432,2.4455,2.447,2.4444,2.4455,2.4476,2.4454,2.448,2.4475,2.4473,2.434,2.4325,2.4497,2.4497,2.4497,2.4497,2.4497,2.4497,2.4511,2.4558,2.4535,2.4578,2.4565,2.459,2.4591,2.4591,2.4585,2.4613,2.4625,2.4608,2.4593,2.4602,2.4613,2.4605,2.461,2.4643,2.4627,2.4502,2.4483,2.4465,2.445,2.4646,2.4646,2.4757,2.4758,2.4759]}]]